Date String (YYYY-MM-DD hh:mm:ss) UTC,Instrument flags,Ambient pressure (hPa),Sample flow (lpm),Bypass flow (lpm),Sample temperature (°C),Ambient temperature (°C),ASC tube jacket temperature (°C),LED temperature (°C),Box temperature (°C),Sample RH (%),Span deviation,Mass concentration (μg/m³),Mass concentration (μg/m³),Mass concentration (μg/m³)
DateTimeUTC,F1_M11,P_M11,Q1_M11,Q2_M11,T1_M11,T2_M11,T3_M11,T4_M11,T5_M11,U1_M11,ZSPAN_M11,X0_M11,X2_M11,X1_M11
2022-09-22 00:00:00,,0832.8,5.00,0.00,30.4,28.7,00.0,39.2,32.2,27.0,0000.1,0013.78,0009.36,0008.47
2022-09-22 00:01:00,,0832.8,5.01,0.00,30.4,28.6,00.0,39.2,32.1,27.0,0000.3,0013.79,0009.40,0008.52
2022-09-22 00:02:00,,0832.8,4.99,0.00,30.4,28.6,00.0,39.2,32.1,27.1,0000.0,0013.86,0009.43,0008.57
2022-09-22 00:03:00,,0832.9,4.99,0.00,30.4,28.5,00.0,39.2,32.1,27.1,0000.1,0013.94,0009.44,0008.60
2022-09-22 00:04:00,,0832.8,5.00,0.00,30.4,28.5,00.0,39.2,32.1,27.2,-000.1,0014.05,0009.46,0008.63
2022-09-22 00:05:00,,0832.8,4.99,0.00,30.4,28.6,00.0,39.2,32.1,27.2,-000.2,0014.72,0009.52,0008.66
2022-09-22 00:06:00,,0832.9,5.01,0.00,30.4,28.7,00.0,39.2,32.1,27.2,-000.4,0014.65,0009.51,0008.68
2022-09-22 00:07:00,,0832.9,4.98,0.00,30.4,28.7,00.0,39.2,32.1,27.2,-000.4,0014.61,0009.50,0008.70
2022-09-22 00:08:00,,0833.0,5.01,0.00,30.4,28.7,00.0,39.2,32.2,27.2,-000.3,0014.50,0009.48,0008.73
2022-09-22 00:09:00,,0832.9,4.99,0.00,30.4,28.8,00.0,39.2,32.2,27.3,0000.2,0014.58,0009.53,0008.76
2022-09-22 00:10:00,,0832.9,5.01,0.00,30.4,28.8,00.0,39.2,32.2,27.2,0000.4,0014.33,0009.56,0008.77
2022-09-22 00:11:00,,0832.8,4.99,0.00,30.4,28.8,00.0,39.2,32.2,27.1,0000.0,0014.33,0009.57,0008.75
2022-09-22 00:12:00,,0832.8,5.01,0.00,30.4,28.7,00.0,39.2,32.1,27.0,-000.3,0015.06,0009.59,0008.74
2022-09-22 00:13:00,,0832.8,4.99,0.00,30.4,28.6,00.0,39.2,32.1,27.0,-000.6,0015.51,0009.63,0008.75
2022-09-22 00:14:00,,0832.8,5.01,0.00,30.3,28.6,00.0,39.2,32.1,27.1,-000.6,0015.57,0009.69,0008.78
2022-09-22 00:15:00,,0832.8,5.00,0.00,30.3,28.5,00.0,39.1,32.1,27.1,-000.8,0015.53,0009.72,0008.80
2022-09-22 00:16:00,,0832.8,5.00,0.00,30.3,28.5,00.0,39.1,32.1,27.4,-001.1,0014.68,0009.68,0008.81
2022-09-22 00:17:00,,0832.8,4.99,0.00,30.3,28.5,00.0,39.1,32.1,28.3,-001.4,0014.72,0009.72,0008.83
2022-09-22 00:18:00,,0832.9,5.02,0.00,30.3,28.6,00.0,39.1,32.1,27.7,-001.7,0015.56,0009.74,0008.84
2022-09-22 00:19:00,,0832.9,4.99,0.00,30.3,28.6,00.0,39.1,32.1,27.4,-001.7,0015.72,0009.77,0008.85
2022-09-22 00:20:00,,0832.8,5.00,0.00,30.3,28.6,00.0,39.1,32.1,27.4,-001.8,0015.88,0009.82,0008.86
2022-09-22 00:21:00,,0833.0,5.01,0.00,30.3,28.6,00.0,39.1,32.0,27.4,-001.8,0015.78,0009.80,0008.85
2022-09-22 00:22:00,,0832.9,5.00,0.00,30.3,28.6,00.0,39.1,32.1,27.3,-001.9,0015.72,0009.80,0008.85
2022-09-22 00:23:00,,0833.0,5.01,0.00,30.3,28.6,00.0,39.1,32.1,27.3,-001.7,0015.11,0009.79,0008.88
2022-09-22 00:24:00,,0832.9,5.00,0.00,30.3,28.6,00.0,39.1,32.0,27.3,-001.7,0014.61,0009.80,0008.89
2022-09-22 00:25:00,,0832.9,4.99,0.00,30.3,28.5,00.0,39.1,32.0,27.3,-001.9,0014.57,0009.79,0008.89
2022-09-22 00:26:00,,0832.9,5.01,0.00,30.2,28.5,00.0,39.1,32.0,27.3,-002.1,0014.66,0009.82,0008.91
2022-09-22 00:27:00,,0832.9,5.01,0.00,30.2,28.5,00.0,39.1,32.0,27.2,-002.1,0014.89,0009.82,0008.92
2022-09-22 00:28:00,,0832.9,5.00,0.00,30.2,28.5,00.0,39.1,32.0,27.2,-001.9,0015.00,0009.84,0008.93
2022-09-22 00:29:00,,0832.8,5.00,0.00,30.2,28.4,00.0,39.1,32.0,27.2,-001.6,0014.40,0009.93,0008.96
2022-09-22 00:30:00,,0832.8,5.00,0.00,30.2,28.4,00.0,39.0,32.0,27.2,-001.4,0014.28,0009.94,0008.96
2022-09-22 00:31:00,,0832.8,5.00,0.00,30.2,28.4,00.0,39.0,32.0,27.1,-001.4,0014.26,0009.95,0008.97
2022-09-22 00:32:00,,0832.8,5.00,0.00,30.2,28.4,00.0,39.0,32.0,27.1,-001.4,0014.47,0010.03,0009.00
2022-09-22 00:33:00,,0832.8,4.99,0.00,30.2,28.4,00.0,39.0,32.0,27.2,-001.1,0014.70,0010.13,0009.05
2022-09-22 00:34:00,,0832.8,5.01,0.00,30.2,28.4,00.0,39.0,32.0,27.3,-001.2,0015.34,0010.18,0009.06
2022-09-22 00:35:00,,0832.9,4.99,0.00,30.2,28.5,00.0,39.0,32.0,27.3,-001.0,0015.68,0010.20,0009.09
2022-09-22 00:36:00,,0832.9,4.99,0.00,30.2,28.6,00.0,39.0,32.0,27.3,-000.9,0015.79,0010.26,0009.11
2022-09-22 00:37:00,,0832.8,5.01,0.00,30.2,28.6,00.0,39.0,32.0,27.4,-000.7,0015.94,0010.29,0009.14
2022-09-22 00:38:00,,0832.8,4.99,0.00,30.2,28.6,00.0,39.0,32.0,27.3,-000.3,0015.78,0010.32,0009.16
2022-09-22 00:39:00,,0832.8,5.01,0.00,30.2,28.6,00.0,39.0,32.0,27.3,-000.1,0015.73,0010.34,0009.17
2022-09-22 00:40:00,,0832.8,5.00,0.00,30.2,28.6,00.0,39.0,32.0,27.4,-000.1,0015.49,0010.27,0009.17
2022-09-22 00:41:00,,0832.8,5.00,0.00,30.2,28.6,00.0,39.0,32.0,27.3,-000.3,0015.39,0010.23,0009.16
2022-09-22 00:42:00,,0832.8,5.01,0.00,30.2,28.6,00.0,39.0,32.0,27.3,-000.1,0015.25,0010.16,0009.12
2022-09-22 00:43:00,,0832.8,5.00,0.00,30.2,28.6,00.0,39.0,32.0,27.3,0000.1,0015.03,0010.04,0009.07
2022-09-22 00:44:00,,0832.8,5.00,0.00,30.2,28.6,00.0,39.0,32.0,27.4,0000.2,0014.81,0009.88,0008.97
2022-09-22 00:45:00,,0832.8,4.99,0.00,30.2,28.6,00.0,39.0,32.0,27.3,0000.2,0014.11,0009.71,0008.85
2022-09-22 00:46:00,,0832.7,5.01,0.00,30.2,28.6,00.0,39.0,32.0,27.4,0000.1,0013.38,0009.53,0008.71
2022-09-22 00:47:00,,0832.7,4.99,0.00,30.2,28.6,00.0,39.0,32.0,27.3,0000.4,0013.00,0009.30,0008.56
2022-09-22 00:48:00,,0832.8,5.01,0.00,30.2,28.6,00.0,39.0,32.0,27.3,0000.5,0012.56,0009.08,0008.40
2022-09-22 00:49:00,,0832.8,5.00,0.00,30.2,28.6,00.0,39.0,32.0,27.2,-000.0,0012.25,0008.91,0008.24
2022-09-22 00:50:00,,0832.8,5.00,0.00,30.2,28.6,00.0,39.0,32.0,27.1,-000.4,0012.11,0008.78,0008.11
2022-09-22 00:51:00,,0832.9,4.99,0.00,30.2,28.6,00.0,39.0,32.0,27.1,-000.7,0011.92,0008.61,0007.96
2022-09-22 00:52:00,,0832.9,5.00,0.00,30.2,28.6,00.0,39.0,32.0,27.0,-000.8,0011.81,0008.49,0007.85
2022-09-22 00:53:00,,0832.9,4.99,0.00,30.2,28.6,00.0,39.0,32.0,27.0,-001.1,0011.69,0008.38,0007.77
2022-09-22 00:54:00,,0832.8,5.01,0.00,30.2,28.6,00.0,39.0,32.0,27.6,-001.3,0011.60,0008.31,0007.69
2022-09-22 00:55:00,,0832.8,4.99,0.00,30.2,28.6,00.0,39.0,32.0,27.9,-001.4,0011.71,0008.24,0007.63
2022-09-22 00:56:00,,0832.8,5.00,0.00,30.2,28.6,00.0,39.0,32.0,27.3,-001.3,0012.25,0008.18,0007.58
2022-09-22 00:57:00,,0832.8,5.01,0.00,30.2,28.6,00.0,39.0,32.0,27.2,-001.8,0012.33,0008.18,0007.56
2022-09-22 00:58:00,,0832.9,4.99,0.00,30.2,28.6,00.0,39.0,32.0,27.2,-001.9,0012.33,0008.16,0007.52
2022-09-22 00:59:00,,0832.9,5.02,0.00,30.2,28.6,00.0,39.0,32.0,27.1,-002.1,0012.32,0008.13,0007.49
